Location: Oberwangen
(47.4286°N, 8.9679°E)
Time: 06:58:41
(UTC+00:00)

Cosmos 1464 Rocket - Pass Details

Date: 20 June 2021
Orbit: 953 x 1001 km, 82.9° (Epoch: 28 July)

Event Time Altitude Azimuth Distance (km) Brightness Sun altitude
Rises 22:22:01 0° 350° (N) 3,723 8.8 -17.7°
Reaches altitude 10° 22:24:33 10° 350° (N) 2,774 7.7 -17.8°
Maximum altitude 22:30:56 84° 263° (W) 1,012 4.0 -18.1°
Enters shadow 22:34:28 29° 178° (S) 1,751 4.8 -18.2°
